Terug naar catalogus

OSCAR 18

WEBERSAT

ActiefAmateurradioSSO
NORAD 20441·PAYLOAD·🇺🇸 United States

Gelanceerd Jan 22, 1990 vanaf Guiana Space Centre

Loading…

Volgende Passages (komende 24 uur)

TLE

VersSource: Space-Track

Epoch: Sep 14, 2026, 01:02 UTC

1 20441U 90005F   26257.04306128  .00000049  00000-0  34170-4 0  9993
2 20441  98.8677 287.7689 0010477 324.9648  55.5807 14.34010574914799

Volg OSCAR 18 in realtime met AllMySat

Download on the App Store